Wallops Island, VA

9:17 PM EST on November 21, 2017 (GMT -0500)
Wallops Flight Facility

Weather History for KWAL - January, 2013

Change the Weather History Date:

Thursday, January 17, 2013

  Actual Average Record
Temperature  
Mean Temperature 40 °F 36 °F  
Max Temperature 46 °F 45 °F 64 °F (2012)
Min Temperature 34 °F 28 °F 0 °F (1982)
Degree Days  
Heating Degree Days 25    
Month to date heating degree days 352  
Since 1 July heating degree days 1594  
Cooling Degree Days 0    
Month to date cooling degree days 0  
Year to date cooling degree days 0  
Moisture  
Dew Point 35 °F    
Average Humidity 77    
Maximum Humidity 83    
Minimum Humidity 70    
Precipitation  
Precipitation 0.96 in 0.09 in 1.09 in (2008)
Month to date precipitation 2.64 1.68  
Year to date precipitation 2.64 1.68  
Sea Level Pressure  
Sea Level Pressure 30.06 in    
Wind  
Wind Speed 6 mph (NNE)    
Max Wind Speed 13 mph    
Max Gust Speed 18 mph    
Visibility 4 miles    
Events Rain , Snow    
T = Trace of Precipitation, MM = Missing Value Source: NWS Daily Summary

Daily Weather History Graph

Daily Weather History Graph

Search for Another Location

Airport or City:

Trip Planner

Search our weather history database for the weather conditions in past years. The results will help you decide how hot, cold, wet, or windy it might be!

Date:

Astronomy

Jan. 17, 2013 Rise Set
Actual Time 7:15 AM EST 5:08 PM EST
Civil Twilight 6:47 AM EST 5:37 PM EST
Nautical Twilight 6:14 AM EST 6:09 PM EST
Astronomical Twilight 5:43 AM EST 6:41 PM EST
Moon 10:28 AM EST (1/17) 11:50 PM EST (1/17)
Length of Visible Light 10h 50m
Length of Day
9h 53m
Waxing Crescent, 37% of the Moon is Illuminated
Jan 17
Waxing Crescent
Jan 18
First Quarter
Jan 26
Full
Feb 3
Last Quarter
Feb 10
New

Hourly Weather History & Observations

Time (EST) Temp. Windchill Dew Point Humidity Pressure Visibility Wind Dir Wind Speed Gust Speed Precip Events Conditions
12:54 AM 46.0 °F - 39.9 °F 79% 29.99 in 10.0 mi Calm Calm - N/A   Overcast
1:54 AM 46.0 °F 44.8 °F 39.9 °F 79% 30.01 in 9.0 mi NNW 3.5 mph - 0.00 in Rain Light Rain
2:54 AM 46.0 °F 43.9 °F 39.9 °F 79% 30.03 in 8.0 mi NW 4.6 mph - 0.00 in Rain Light Rain
3:54 AM 45.0 °F 43.5 °F 39.9 °F 82% 30.02 in 7.0 mi NNW 3.5 mph - 0.00 in Rain Light Rain
4:54 AM 45.0 °F 43.5 °F 39.9 °F 82% 30.01 in 6.0 mi North 3.5 mph - 0.01 in Rain Light Rain
5:54 AM 45.0 °F 42.6 °F 39.9 °F 82% 30.05 in 5.0 mi NNW 4.6 mph - 0.02 in Rain Light Rain
6:54 AM 45.0 °F - 39.9 °F 82% 30.07 in 3.0 mi Calm Calm - 0.04 in Rain Light Rain
7:01 AM 45.0 °F - 39.9 °F 82% 30.08 in 4.0 mi Calm Calm - 0.00 in Rain Light Rain
7:15 AM 45.0 °F - 39.9 °F 82% 30.08 in 3.0 mi Calm Calm - 0.02 in Rain Light Rain
7:43 AM 45.0 °F 42.6 °F 39.0 °F 80% 30.08 in 3.0 mi ENE 4.6 mph - 0.05 in Rain Rain
7:54 AM 45.0 °F - 39.0 °F 80% 30.08 in 3.0 mi Calm Calm - 0.06 in Rain Light Rain
8:03 AM 45.0 °F - 39.0 °F 80% 30.10 in 2.0 mi Calm Calm - 0.03 in Rain Rain
8:22 AM 44.1 °F 40.8 °F 37.9 °F 79% 30.09 in 3.0 mi ENE 5.8 mph - 0.09 in Rain Light Rain
8:54 AM 44.1 °F 42.5 °F 37.0 °F 76% 30.11 in 4.0 mi ENE 3.5 mph - 0.15 in Rain Rain
9:54 AM 44.1 °F 41.5 °F 37.0 °F 76% 30.12 in 6.0 mi East 4.6 mph - 0.05 in Rain Light Rain
10:54 AM 44.1 °F 39.0 °F 36.0 °F 73% 30.12 in 7.0 mi North 9.2 mph - 0.06 in Rain Light Rain
11:54 AM 42.1 °F 37.1 °F 34.0 °F 73% 30.09 in 7.0 mi North 8.1 mph - 0.04 in Rain Light Rain
12:54 PM 42.1 °F 37.7 °F 35.1 °F 76% 30.06 in 6.0 mi NNE 6.9 mph - 0.03 in Rain Light Rain
1:54 PM 42.1 °F 37.7 °F 34.0 °F 73% 30.05 in 7.0 mi NNE 6.9 mph - 0.07 in Rain Light Rain
2:54 PM 42.1 °F 37.7 °F 35.1 °F 76% 30.08 in 7.0 mi North 6.9 mph - 0.00 in Rain Light Rain
3:25 PM 41.0 °F 37.1 °F 35.1 °F 79% 30.08 in 2.0 mi North 5.8 mph - 0.02 in Rain Light Rain
3:37 PM 41.0 °F 36.4 °F 34.0 °F 76% 30.08 in 3.0 mi NNE 6.9 mph - 0.04 in Rain Light Rain
3:54 PM 41.0 °F 38.0 °F 35.1 °F 79% 30.08 in 3.0 mi NNE 4.6 mph - 0.05 in Rain Light Rain
3:59 PM 41.0 °F 37.1 °F 35.1 °F 79% 30.09 in 2.5 mi NNE 5.8 mph - 0.00 in Rain Light Rain
4:04 PM 41.0 °F 36.4 °F 35.1 °F 79% 30.09 in 2.0 mi NNE 6.9 mph - 0.01 in Rain Light Rain
4:08 PM 41.0 °F 36.4 °F 35.1 °F 79% 30.08 in 1.8 mi NNE 6.9 mph - 0.01 in Rain Light Rain
4:15 PM 41.0 °F 36.4 °F 35.1 °F 79% 30.08 in 2.0 mi NNE 6.9 mph - 0.03 in Rain Light Rain
4:25 PM 41.0 °F 37.1 °F 35.1 °F 79% 30.07 in 3.0 mi NNE 5.8 mph - 0.04 in Rain Light Rain
4:28 PM 41.0 °F 36.4 °F 35.1 °F 79% 30.07 in 3.0 mi NE 6.9 mph - 0.04 in Rain Light Rain
4:35 PM 41.0 °F 36.4 °F 35.1 °F 79% 30.06 in 4.0 mi ENE 6.9 mph - 0.04 in Rain Light Rain
4:43 PM 41.0 °F 37.1 °F 35.1 °F 79% 30.08 in 4.0 mi NE 5.8 mph - 0.04 in Rain Light Rain
4:54 PM 39.9 °F 33.4 °F 35.1 °F 83% 30.07 in 6.0 mi NE 10.4 mph - 0.04 in   Haze
5:10 PM 39.9 °F 34.5 °F 34.0 °F 79% 30.10 in 8.0 mi NNE 8.1 mph - 0.00 in Rain Light Rain
5:22 PM 39.9 °F 33.9 °F 34.0 °F 79% 30.10 in 5.0 mi NE 9.2 mph - 0.00 in Rain Light Rain
5:54 PM 39.0 °F 34.0 °F 33.1 °F 79% 30.09 in 3.0 mi NE 6.9 mph - 0.02 in Rain Light Rain
5:59 PM 39.0 °F 34.0 °F 33.1 °F 79% 30.10 in 3.0 mi NNE 6.9 mph - 0.00 in Rain Light Rain
6:06 PM 39.0 °F 33.4 °F 33.1 °F 79% 30.09 in 4.0 mi NNE 8.1 mph - 0.00 in   Haze
6:12 PM 39.0 °F 34.8 °F 33.1 °F 79% 30.09 in 4.0 mi Variable 5.8 mph - 0.00 in   Haze
6:16 PM 39.0 °F 33.4 °F 33.1 °F 79% 30.09 in 5.0 mi NE 8.1 mph - 0.00 in   Haze
6:54 PM 39.0 °F 34.0 °F 33.1 °F 79% 30.08 in 5.0 mi NNE 6.9 mph - 0.00 in   Haze
7:54 PM 39.0 °F 32.8 °F 32.0 °F 76% 30.06 in 4.0 mi NNE 9.2 mph - 0.00 in Rain Light Rain
8:54 PM 37.9 °F 30.9 °F 32.0 °F 79% 30.02 in 3.0 mi North 10.4 mph - 0.01 in Rain Light Rain
9:19 PM 37.9 °F 30.9 °F 32.0 °F 79% 30.03 in 3.0 mi North 10.4 mph - 0.01 in Rain Light Rain
9:50 PM 37.4 °F 29.8 °F 30.2 °F 75% 30.04 in 2.5 mi North 11.5 mph - 0.04 in Rain Light Rain
9:54 PM 37.0 °F 29.8 °F 30.9 °F 79% 30.03 in 2.5 mi North 10.4 mph - 0.04 in Rain Light Rain
10:07 PM 37.0 °F 30.4 °F 30.9 °F 79% 30.03 in 3.0 mi North 9.2 mph - 0.02 in Rain Light Rain
10:37 PM 36.0 °F 29.6 °F 30.9 °F 82% 30.04 in 2.5 mi North 8.1 mph - 0.07 in Rain Rain
10:54 PM 36.0 °F 29.6 °F 30.0 °F 79% 30.03 in 2.5 mi North 8.1 mph - 0.11 in Rain Light Rain
11:10 PM 35.1 °F 26.9 °F 30.0 °F 82% 30.01 in 1.8 mi North 11.5 mph - 0.04 in Snow Light Snow
11:20 PM 34.0 °F 25.5 °F 28.9 °F 82% 30.02 in 1.5 mi North 11.5 mph - 0.07 in Snow Light Snow
11:47 PM 34.0 °F 25.5 °F 28.9 °F 82% 30.04 in 1.0 mi NNW 11.5 mph - 0.13 in Snow Light Snow
11:54 PM 34.0 °F 25.5 °F 28.9 °F 82% 30.04 in 1.2 mi NNW 11.5 mph - 0.15 in Snow Light Snow